Torna al catalogo

FENGYUN 1C DEB

AttivoSSO
NORAD 40696·DEBRIS·🇨🇳 China

Lanciato May 10, 1999 da Taiyuan Satellite Launch Center

Loading…

Prossimi Passaggi (prossime 24 ore)

TLE

In scadenzaSource: Space-Track

Epoca: Sep 9, 2026, 16:35 UTC

1 40696U 99025EXC 26252.69114036  .00000114  00000-0  11079-3 0  9994
2 40696  98.9822 237.7963 0079442 332.2781  27.4158 13.96868029594629

Traccia FENGYUN 1C DEB in tempo reale con AllMySat

Download on the App Store